EW2785 Weather Reports


time (UTC)temp
F
wind
direction
speed
knots
gust
knots
rain 1hr
in
rain 24hr
in
rain mn
in
humidity
%
barometer
mb
20260509210056 49 103 0.0 1.7 0.00 0.01 0.01 89 1010.2
20260509204555 48 103 0.0 0.9 0.01 0.01 0.01 89 1010.2
20260509203053 48 103 0.0 0.9 0.01 0.01 0.01 89 1010.4
20260509201601 48 103 0.0 3.5 0.01 0.01 0.01 88 1010.4
20260509200054 48 171 0.0 1.7 0.01 0.01 0.01 87 1010.5
20260509194557 49 171 0.0 2.6 0.00 0.00 0.00 86 1010.5
20260509193050 49 110 0.0 1.7 0.00 0.00 0.00 85 1010.7
20260509191604 49 120 0.0 5.2 0.00 0.00 0.00 84 1010.7
20260509190049 49 112 0.9 5.2 0.00 0.00 0.00 83 1010.8
20260509184552 50 93 0.9 7.0 0.00 0.00 0.00 82 1010.8
20260509183053 50 80 2.6 6.1 0.00 0.00 0.00 83 1010.9
20260509181551 50 109 0.0 7.0 0.00 0.00 0.00 83 1010.9
20260509180053 50 86 0.9 4.3 0.00 0.00 0.00 84 1011.0
20260509174546 50 103 0.9 6.1 0.00 0.00 0.00 86 1011.1
20260509173054 50 119 0.9 2.6 0.00 0.00 0.00 86 1011.3
20260509171542 49 102 0.0 2.6 0.00 0.00 0.00 86 1011.4
20260509170037 49 130 0.0 3.5 0.00 0.00 0.00 85 1011.8
20260509164535 49 88 0.9 3.5 0.00 0.00 0.00 84 1012.0
20260509163136 50 78 1.7 2.6 0.00 0.00 0.00 83 1012.0
20260509161539 50 115 0.9 3.5 0.00 0.00 0.00 79 1012.3
20260509160035 50 113 0.9 7.0 0.00 0.00 0.00 78 1012.3
20260509154531 50 105 2.6 6.1 0.00 0.00 0.00 77 1012.5
20260509153048 50 92 0.9 5.2 0.00 0.00 0.00 77 1012.7
20260509151529 50 105 1.7 6.1 0.00 0.00 0.00 74 1012.8
20260509150030 50 65 2.6 7.0 0.00 0.00 0.00 72 1012.9
20260509144527 50 105 3.5 7.0 0.00 0.00 0.00 68 1012.7
20260509143027 50 101 0.9 6.1 0.00 0.00 0.00 69 1012.7
20260509141533 49 109 0.0 3.5 0.00 0.00 0.00 68 1012.5
20260509140019 48 190 0.0 0.9 0.00 0.00 0.00 67 1012.4
20260509134517 47 190 0.0 1.7 0.00 0.00 0.00 68 1012.5
20260509133014 46 157 0.0 1.7 0.00 0.00 0.00 70 1012.4
20260509131510 45 178 0.0 1.7 0.00 0.00 0.00 72 1012.5
20260509130005 43 205 0.0 1.7 0.00 0.00 0.00 79 1012.6
20260509124501 41 326 0.0 0.0 0.00 0.00 0.00 85 1012.9
20260509123057 39 321 0.0 0.9 0.00 0.00 0.00 89 1013.1
20260509121553 37 313 0.0 0.9 0.00 0.00 0.00 92 1013.3
20260509120053 36 317 0.0 0.0 0.00 0.00 0.00 92 1013.4
20260509114547 34 317 0.0 2.6 0.00 0.00 0.00 92 1013.5
20260509113047 33 26 0.0 2.6 0.00 0.00 0.00 92 1013.5
20260509111546 31 86 0.0 0.0 0.00 0.00 0.00 92 1013.7
20260509110046 30 86 0.0 0.0 0.00 0.00 0.00 91 1013.7
20260509104545 29 86 0.0 0.0 0.00 0.00 0.00 91 1013.6
20260509103051 28 86 0.0 0.0 0.00 0.00 0.00 90 1013.5
20260509101543 28 86 0.0 0.0 0.00 0.00 0.00 90 1013.6
20260509100042 28 86 0.0 0.0 0.00 0.00 0.00 90 1013.6
20260509094553 28 86 0.0 0.0 0.00 0.00 0.00 90 1013.5
20260509093042 28 86 0.0 0.0 0.00 0.00 0.00 90 1013.4
20260509091549 29 86 0.0 0.0 0.00 0.00 0.00 90 1013.3
20260509090051 29 86 0.0 0.0 0.00 0.00 0.00 90 1013.2
20260509084541 29 86 0.0 0.0 0.00 0.00 0.00 89 1013.2
20260509083040 29 86 0.0 1.7 0.00 0.00 0.00 89 1013.1
20260509081536 29 167 0.0 0.0 0.00 0.00 0.00 89 1013.0
20260509080044 29 167 0.0 0.0 0.00 0.00 0.00 89 1012.9
20260509074543 29 167 0.0 0.0 0.00 0.00 0.00 88 1012.9
20260509073045 29 167 0.0 0.0 0.00 0.00 0.00 88 1013.0
20260509071531 30 167 0.0 0.0 0.00 0.00 0.00 88 1013.1
20260509070030 30 167 0.0 0.0 0.00 0.00 0.00 88 1013.3
20260509064529 30 167 0.0 0.0 0.00 0.00 0.00 88 1013.4
20260509063031 31 167 0.0 0.0 0.00 0.00 0.00 88 1013.5
20260509061526 31 167 0.0 0.0 0.00 0.00 0.00 88 1013.5
20260509060029 32 167 0.0 0.0 0.00 0.00 0.00 87 1013.6
20260509054522 32 167 0.0 0.9 0.00 0.00 0.00 87 1013.6
20260509053030 33 167 0.0 0.0 0.00 0.00 0.00 86 1013.5
20260509051519 33 167 0.0 0.0 0.00 0.00 0.00 86 1013.5
20260509050016 33 167 0.0 0.9 0.00 0.00 0.00 85 1013.2
20260509044513 34 167 0.0 0.0 0.00 0.00 0.00 84 1013.1
20260509043020 35 167 0.0 0.0 0.00 0.00 0.00 84 1012.9
20260509041512 35 167 0.0 0.0 0.00 0.00 0.00 83 1012.9
20260509040009 36 167 0.0 0.0 0.00 0.00 0.00 82 1012.9
20260509034505 36 167 0.0 0.0 0.00 0.00 0.00 82 1012.8
20260509033005 37 167 0.0 0.0 0.00 0.00 0.00 81 1012.8
20260509031504 38 167 0.0 0.0 0.00 0.00 0.00 80 1012.7
20260509030001 38 167 0.0 0.0 0.00 0.00 0.00 79 1012.7
20260509024608 39 167 0.0 0.0 0.00 0.00 0.00 78 1012.5
20260509023059 40 167 0.0 0.0 0.00 0.00 0.00 75 1012.3
20260509021559 41 167 0.0 0.0 0.00 0.00 0.00 73 1012.3
20260509020111 42 167 0.0 0.0 0.00 0.00 0.00 72 1012.1
20260509014555 43 167 0.0 0.0 0.00 0.00 0.00 70 1012.0
20260509013056 44 167 0.0 0.0 0.00 0.00 0.00 68 1011.8
20260509011558 46 167 0.0 0.0 0.00 0.00 0.00 66 1011.5
20260509010048 47 167 0.0 0.9 0.00 0.00 0.00 62 1011.2
20260509004549 48 167 0.0 0.0 0.00 0.00 0.00 59 1011.0
20260509003053 48 167 0.0 2.6 0.00 0.00 0.00 59 1010.8
20260509001544 49 179 0.0 4.3 0.00 0.00 0.00 59 1010.6
20260509000042 49 172 0.0 1.7 0.00 0.00 0.00 58 1010.5
20260508234541 50 169 0.0 0.9 0.00 0.00 0.00 58 1010.4
20260508233045 50 187 0.0 6.1 0.00 0.00 0.00 58 1010.2
20260508231546 50 163 0.0 6.1 0.00 0.00 0.00 56 1010.2
20260508230043 51 182 0.0 4.3 0.00 0.00 0.00 55 1010.1
20260508224550 51 151 0.0 5.2 0.00 0.00 0.00 53 1009.9
20260508223041 51 168 0.0 6.1 0.00 0.00 0.00 53 1009.9
20260508221539 52 169 0.9 7.8 0.00 0.00 0.00 47 1009.7
20260508220046 52 191 0.9 5.2 0.00 0.00 0.00 39 1009.6
20260508214544 53 187 0.9 6.1 0.00 0.00 0.00 39 1009.4
20260508213040 53 232 3.5 9.6 0.00 0.00 0.00 37 1009.4
20260508211537 54 258 0.0 2.6 0.00 0.00 0.00 40 1009.2